Location: Pulvis Stellarum Observatory
(41.6962°N, 71.4263°W)
Time: 14:38:55
(UTC-04:00)

Cosmos 1758 - Visible Passes

Search period start: 27 July 2017 00:00
Search period end: 06 August 2017 00:00
Orbit: 542 x 564 km, 82.5° (Epoch: 26 July)

Date Brightness Start Highest point End Pass type
(mag) Time Alt. Az. Time Alt. Az. Time Alt. Az.
27 Jul 5.5 03:31:22 10° SE 03:34:34 23° E 03:37:48 10° NE visible
28 Jul 5.3 03:28:00 11° SE 03:31:12 26° E 03:34:35 10° NNE visible
29 Jul 5.1 03:25:09 15° SE 03:27:51 29° E 03:31:22 10° NNE visible
29 Jul 4.9 05:01:21 10° WSW 05:04:22 20° WNW 05:07:25 10° NNW visible
30 Jul 4.8 03:22:16 19° SE 03:24:30 33° E 03:28:09 10° NNE visible
30 Jul 5.0 04:58:16 10° WSW 05:01:05 18° WNW 05:03:55 10° NNW visible
31 Jul 4.6 03:19:21 24° SE 03:21:09 37° E 03:24:54 10° NNE visible
31 Jul 5.2 04:55:13 10° WSW 04:57:48 16° WNW 05:00:24 10° NNW visible
01 Aug 4.3 03:16:25 30° SE 03:17:48 42° E 03:21:39 10° NNE visible
01 Aug 5.3 04:52:14 10° WSW 04:54:32 15° WNW 04:56:50 10° NW visible
02 Aug 4.1 03:13:28 38° SE 03:14:27 47° E 03:18:23 10° NNE visible
02 Aug 5.4 04:49:18 10° W 04:51:15 13° WNW 04:53:13 10° NW visible
03 Aug 3.8 03:10:30 48° SE 03:11:07 54° E 03:15:07 10° NNE visible
03 Aug 5.5 04:46:29 10° W 04:47:59 12° WNW 04:49:29 10° NW visible
04 Aug 3.6 03:07:30 60° ESE 03:07:47 62° E 03:11:49 10° NNE visible
04 Aug 5.6 04:43:57 10° WNW 04:44:43 10° WNW 04:45:29 10° WNW visible
05 Aug 3.4 03:04:29 70° E 03:04:29 70° E 03:08:31 10° NNE visible
